| time (UTC) | temp F | wind direction | speed MPH | gust MPH | rain 1hr in | rain 24hr in | rain mn in | humidity % | barometer mb |
| 20260505184550 | 33 | 234 | 0.0 | 0.0 | 0.00 | 0.00 | 0.11 | 89 | 1009.5 |
| 20260505183053 | 34 | 150 | 0.0 | 0.0 | 0.00 | 0.00 | 0.11 | 90 | 1009.3 |
| 20260505181549 | 34 | 138 | 0.0 | 0.0 | 0.00 | 0.00 | 0.11 | 90 | 1009.3 |
| 20260505180055 | 33 | 157 | 1.0 | 0.0 | 0.00 | 0.00 | 0.11 | 90 | 1009.7 |
| 20260505174548 | 33 | 195 | 0.0 | 0.0 | 0.00 | 0.00 | 0.11 | 90 | 1009.3 |
| 20260505173102 | 33 | 34 | 0.0 | 0.0 | 0.00 | 0.00 | 0.10 | 90 | 1009.1 |
| 20260505171558 | 33 | 165 | 1.0 | 0.0 | 0.00 | 0.00 | 0.10 | 90 | 1008.8 |
| 20260505170046 | 33 | 193 | 1.0 | 0.0 | 0.00 | 0.00 | 0.10 | 90 | 1008.3 |
| 20260505164545 | 34 | 195 | 0.0 | 0.0 | 0.00 | 0.00 | 0.09 | 90 | 1008.1 |
| 20260505163045 | 34 | 220 | 1.0 | 0.0 | 0.00 | 0.00 | 0.08 | 90 | 1007.9 |
| 20260505161543 | 34 | 143 | 0.0 | 0.0 | 0.00 | 0.00 | 0.07 | 90 | 1007.6 |
| 20260505153041 | 33 | 200 | 0.0 | 0.0 | 0.00 | 0.00 | 0.03 | 90 | 1007.7 |
| 20260505151539 | 32 | 152 | 0.0 | 0.0 | 0.00 | 0.00 | 0.01 | 90 | 1007.6 |
| 20260505124542 | 32 | 162 | 0.0 | 0.0 | 0.00 | 0.00 | 0.01 | 89 | 1006.3 |
| 20260505123030 | 32 | 169 | 0.0 | 0.0 | 0.00 | 0.00 | 0.01 | 89 | 1006.6 |
| 20260505121550 | 32 | 168 | 0.0 | 0.0 | 0.00 | 0.00 | 0.01 | 89 | 1006.7 |
| 20260505120029 | 32 | 137 | 0.0 | 0.0 | 0.00 | 0.00 | 0.01 | 88 | 1006.6 |
| 20260505114530 | 32 | 155 | 0.0 | 0.0 | 0.00 | 0.00 | 0.01 | 88 | 1006.7 |
| 20260505113030 | 32 | 171 | 0.0 | 0.0 | 0.00 | 0.00 | 0.01 | 88 | 1006.7 |
| 20260505111534 | 32 | 179 | 1.0 | 0.0 | 0.00 | 0.00 | 0.01 | 88 | 1006.7 |
| 20260505101522 | 32 | 193 | 0.0 | 0.0 | 0.00 | 0.00 | 0.01 | 89 | 1007.0 |
| 20260505100032 | 32 | 136 | 1.0 | 0.0 | 0.00 | 0.00 | 0.01 | 88 | 1006.5 |
| 20260505094518 | 32 | 141 | 2.0 | 0.0 | 0.00 | 0.00 | 0.01 | 88 | 1006.3 |
| 20260505093025 | 32 | 203 | 3.0 | 0.0 | 0.00 | 0.00 | 0.01 | 88 | 1006.6 |
| 20260505091517 | 32 | 154 | 1.0 | 0.0 | 0.00 | 0.00 | 0.01 | 88 | 1006.9 |
| 20260505090013 | 33 | 226 | 0.0 | 0.0 | 0.00 | 0.00 | 0.01 | 88 | 1006.4 |
| 20260505084512 | 33 | 210 | 1.0 | 0.0 | 0.00 | 0.00 | 0.01 | 88 | 1006.6 |
| 20260505083010 | 33 | 206 | 1.0 | 0.0 | 0.00 | 0.00 | 0.01 | 88 | 1007.0 |
| 20260505081514 | 33 | 189 | 0.0 | 0.0 | 0.00 | 0.00 | 0.01 | 88 | 1007.1 |
| 20260505080008 | 33 | 216 | 0.0 | 0.0 | 0.00 | 0.00 | 0.00 | 88 | 1007.2 |
| 20260505074509 | 33 | 220 | 0.0 | 0.0 | 0.00 | 0.00 | 0.00 | 88 | 1007.5 |
| 20260505073007 | 33 | 133 | 0.0 | 0.0 | 0.00 | 0.00 | 0.00 | 88 | 1007.7 |
| 20260505071506 | 33 | 133 | 0.0 | 0.0 | 0.00 | 0.00 | 0.00 | 88 | 1007.8 |
| 20260505070006 | 33 | 220 | 0.0 | 0.0 | 0.00 | 0.00 | 0.00 | 88 | 1007.2 |
| 20260505064505 | 33 | 220 | 0.0 | 0.0 | 0.00 | 0.00 | 0.00 | 88 | 1007.2 |
| 20260505063005 | 33 | 233 | 0.0 | 0.0 | 0.00 | 0.00 | 0.00 | 88 | 1007.3 |
| 20260505061505 | 33 | 128 | 1.0 | 0.0 | 0.00 | 0.00 | 0.00 | 88 | 1007.4 |
| 20260505060004 | 33 | 219 | 0.0 | 0.0 | 0.00 | 0.00 | 0.00 | 88 | 1007.6 |
| 20260505054504 | 33 | 217 | 1.0 | 0.0 | 0.00 | 0.00 | 0.00 | 88 | 1007.6 |
| 20260505053004 | 33 | 257 | 0.0 | 0.0 | 0.00 | 0.00 | 0.00 | 88 | 1007.3 |
| 20260505051501 | 33 | 138 | 1.0 | 0.0 | 0.00 | 0.00 | 0.00 | 88 | 1007.5 |
| 20260505041610 | 33 | 176 | 0.0 | 0.0 | 0.00 | 0.00 | 0.00 | 87 | 1007.6 |
| 20260505040104 | 33 | 151 | 0.0 | 0.0 | 0.00 | 0.00 | 0.00 | 87 | 1007.5 |
| 20260505034558 | 34 | 158 | 1.0 | 0.0 | 0.00 | 0.00 | 0.00 | 87 | 1007.4 |
| 20260505033058 | 34 | 210 | 1.0 | 0.0 | 0.00 | 0.00 | 0.00 | 87 | 1007.3 |
| 20260505031604 | 34 | 155 | 0.0 | 0.0 | 0.00 | 0.00 | 0.00 | 86 | 1007.2 |
| 20260505030104 | 34 | 131 | 1.0 | 0.0 | 0.00 | 0.00 | 0.00 | 86 | 1007.8 |
| 20260505024607 | 34 | 188 | 1.0 | 0.0 | 0.00 | 0.00 | 0.00 | 85 | 1007.8 |
| 20260505023059 | 34 | 215 | 0.0 | 0.0 | 0.00 | 0.00 | 0.00 | 82 | 1007.8 |
| 20260505021558 | 34 | 181 | 0.0 | 0.0 | 0.00 | 0.00 | 0.00 | 82 | 1007.8 |
| 20260505020103 | 34 | 216 | 3.0 | 0.0 | 0.00 | 0.00 | 0.00 | 82 | 1008.4 |
| 20260505014554 | 34 | 224 | 1.0 | 0.0 | 0.00 | 0.00 | 0.00 | 83 | 1008.5 |
| 20260505013053 | 35 | 152 | 0.0 | 0.0 | 0.00 | 0.00 | 0.00 | 85 | 1008.5 |
| 20260505011552 | 35 | 150 | 1.0 | 0.0 | 0.00 | 0.00 | 0.00 | 85 | 1008.5 |
| 20260505010107 | 35 | 195 | 1.0 | 0.0 | 0.00 | 0.00 | 0.00 | 85 | 1008.1 |
| 20260505004551 | 35 | 200 | 1.0 | 0.0 | 0.00 | 0.00 | 0.00 | 83 | 1008.3 |
| 20260505003052 | 35 | 172 | 1.0 | 0.0 | 0.00 | 0.00 | 0.00 | 82 | 1008.3 |
| 20260505001550 | 35 | 196 | 1.0 | 0.0 | 0.00 | 0.00 | 0.00 | 80 | 1008.1 |
| 20260505000054 | 36 | 148 | 1.0 | 0.0 | 0.00 | 0.00 | 0.00 | 77 | 1007.6 |
| 20260504234551 | 35 | 223 | 1.0 | 0.0 | 0.00 | 0.00 | 0.00 | 76 | 1007.8 |
| 20260504233054 | 36 | 213 | 1.0 | 0.0 | 0.00 | 0.00 | 0.00 | 77 | 1007.7 |
| 20260504231548 | 36 | 206 | 1.0 | 0.0 | 0.00 | 0.00 | 0.00 | 76 | 1007.7 |
| 20260504230107 | 36 | 224 | 2.0 | 0.0 | 0.00 | 0.00 | 0.00 | 75 | 1007.9 |
| 20260504224600 | 36 | 182 | 4.0 | 0.0 | 0.00 | 0.00 | 0.00 | 77 | 1007.9 |
| 20260504223047 | 36 | 193 | 4.0 | 0.0 | 0.00 | 0.00 | 0.00 | 75 | 1007.8 |
| 20260504221546 | 37 | 141 | 7.0 | 0.0 | 0.00 | 0.00 | 0.00 | 68 | 1007.3 |
| 20260504220052 | 38 | 215 | 4.0 | 0.0 | 0.00 | 0.00 | 0.00 | 70 | 1007.7 |
| 20260504214546 | 37 | 203 | 6.0 | 0.0 | 0.00 | 0.00 | 0.00 | 69 | 1008.1 |
| 20260504213043 | 38 | 213 | 5.0 | 0.0 | 0.00 | 0.00 | 0.00 | 68 | 1008.1 |
| 20260504211543 | 38 | 206 | 5.0 | 0.0 | 0.00 | 0.00 | 0.00 | 66 | 1008.4 |
| 20260504210055 | 39 | 205 | 3.0 | 0.0 | 0.00 | 0.00 | 0.00 | 65 | 1008.6 |
| 20260504204548 | 39 | 186 | 3.0 | 0.0 | 0.00 | 0.00 | 0.00 | 64 | 1008.9 |
| 20260504203044 | 39 | 205 | 3.0 | 0.0 | 0.00 | 0.00 | 0.00 | 63 | 1008.5 |
| 20260504201546 | 38 | 202 | 4.0 | 0.0 | 0.00 | 0.00 | 0.00 | 64 | 1009.1 |
| 20260504200050 | 38 | 202 | 4.0 | 0.0 | 0.00 | 0.00 | 0.00 | 64 | 1008.9 |
| 20260504194539 | 38 | 199 | 5.0 | 0.0 | 0.00 | 0.00 | 0.00 | 65 | 1009.0 |
| 20260504193043 | 41 | 203 | 3.0 | 0.0 | 0.00 | 0.00 | 0.00 | 60 | 1008.3 |
| 20260504191539 | 40 | 148 | 4.0 | 0.0 | 0.00 | 0.00 | 0.00 | 60 | 1008.4 |
| 20260504190037 | 40 | 212 | 3.0 | 0.0 | 0.00 | 0.00 | 0.00 | 58 | 1007.6 |